[[{"header":{"parameterUnit":"m.s-1","parameterCategory":1,"la1":30.2991,"la2":30.254,"lo1":-89.0895,"lo2":-89.0444,"dy":0.0017,"dx":0.0017,"nx":28,"ny":28,"refTime":"2025-09-12T09:00:00:Z","depth":0,"parameterNumber":2,"parameterNumberName":"U-component_of_WINDS"},"data":[0,0,0,0,0,0,0,0,0,0,0,0,0,0,0,0,0,0,0,0,0,0,0,0,0,0,0,0,0,0,0,0,0,0,0,0,0,0,0,0,0,0,0,0,0,0,0,0,0,0,0,0,0,0,0,0,0,0,-0.6372,-0.6372,0,-0.636,-0.636,-0.636,-0.6342,-0.6341,-0.6341,-0.6341,-0.6329,-0.6329,-0.6329,0,0,0,0,0,0,0,0,0,0,0,0,0,-0.6379,-0.6379,-0.6372,-0.6372,-0.6371,-0.636,-0.636,-0.636,-0.6342,-0.6341,-0.6341,-0.6341,-0.6329,-0.6329,-0.6329,0,0,0,0,0,0,0,0,0,0,0,0,0,-0.6373,-0.6379,-0.6372,-0.6361,-0.636,-0.636,-0.636,-0.636,-0.6342,-0.6341,-0.6341,-0.634,-0.6329,-0.6329,-0.6329,-0.6339,0,0,-0.6329,-0.6329,0,0,0,0,0,0,0,0,-0.6373,-0.6372,-0.6363,-0.6362,-0.6361,-0.6352,-0.6358,-0.6353,-0.6342,-0.6349,-0.6341,-0.634,-0.6337,-0.6336,-0.6335,-0.6338,-0.6338,-0.6329,-0.6329,-0.6329,-0.6329,0,0,0,0,0,0,0,-0.6373,-0.6373,-0.6367,-0.6363,-0.6361,-0.6357,-0.6356,-0.6357,-0.6346,-0.6348,-0.6347,-0.6346,-0.6336,-0.6335,-0.6335,-0.6338,-0.6329,-0.6329,-0.6329,-0.6329,-0.6349,-0.6349,0,0,0,0,0,0,-0.6375,-0.6373,-0.6367,-0.6367,-0.6366,-0.6357,-0.6356,-0.6355,-0.6346,-0.6344,-0.6346,-0.6345,-0.6336,-0.6335,-0.6334,-0.6345,-0.6329,-0.6329,-0.6329,-0.6348,-0.6349,-0.6349,0,0,0,0,0,0,-0.6376,-0.6375,-0.6368,-0.637,-0.6368,-0.6358,-0.6357,-0.6355,-0.6354,-0.6344,-0.6342,-0.6347,-0.6335,-0.6335,-0.6338,-0.6345,-0.6329,-0.6329,-0.6347,-0.6348,-0.6349,-0.6367,0,0,0,0,0,0,-0.6376,-0.6375,-0.6379,-0.637,-0.6368,-0.6371,-0.6358,-0.6355,-0.6354,-0.6352,-0.6345,-0.6343,-0.6335,-0.6338,-0.6338,-0.6345,-0.6329,-0.6347,-0.6348,-0.6349,-0.6366,-0.6369,-0.6371,0,0,0,0,0,-0.6376,-0.6384,-0.6379,-0.6378,-0.6372,-0.6372,-0.6371,-0.6362,-0.6355,-0.6358,-0.6352,-0.6343,-0.6344,-0.6339,-0.6338,-0.6345,-0.6346,-0.6348,-0.6349,-0.6365,-0.6368,-0.6371,0,0,0,0,0,0,-0.6394,-0.6383,-0.6377,-0.6382,-0.6378,-0.6369,-0.6373,-0.6365,-0.6363,-0.6362,-0.635,-0.6349,-0.6354,-0.635,-0.6344,-0.6354,-0.6344,-0.6345,-0.6356,-0.6359,-0.6362,-0.6363,-0.6329,0,0,0,0,0,-0.6399,-0.6399,-0.6389,-0.6395,-0.6393,-0.6384,-0.6383,-0.6376,-0.6372,-0.637,-0.6364,-0.636,-0.6359,-0.6359,-0.6358,-0.6366,-0.6364,-0.637,-0.6372,-0.6374,-0.6376,-0.638,-0.6382,-0.6353,-0.6353,-0.6353,0,0,-0.6408,-0.6402,-0.6403,-0.6399,-0.6395,-0.6396,-0.6382,-0.6384,-0.6384,-0.637,-0.6373,-0.6369,-0.6363,-0.6369,-0.6371,-0.6366,-0.6383,-0.6376,-0.6378,-0.6378,-0.6381,-0.6384,-0.6386,-0.6354,-0.6354,-0.6354,0,0,-0.6426,-0.6422,-0.6426,-0.6422,-0.6416,-0.641,-0.6411,-0.6403,-0.6399,-0.6402,-0.6391,-0.6392,-0.6391,-0.6388,-0.6387,-0.6404,-0.6396,-0.6404,-0.6416,-0.642,-0.6423,-0.6425,-0.6431,-0.6433,-0.6405,-0.6405,-0.6405,0,-0.6439,-0.644,-0.6429,-0.6431,-0.643,-0.6417,-0.6421,-0.6418,-0.6413,-0.6412,-0.6406,-0.6405,-0.6401,-0.6406,-0.641,-0.6409,-0.641,-0.6405,-0.6423,-0.6425,-0.6427,-0.6433,-0.6435,-0.6406,-0.6406,-0.6406,-0.6406,0,-0.6456,-0.6457,-0.6461,-0.6455,-0.6454,-0.6458,-0.6448,-0.6448,-0.6442,-0.6436,-0.6439,-0.6433,-0.6431,-0.6432,-0.6425,-0.6436,-0.6433,-0.6425,-0.6415,-0.6431,-0.6436,-0.6438,-0.6407,-0.6407,-0.6407,-0.6407,0,0,-0.6485,-0.6474,-0.6475,-0.6473,-0.6466,-0.6466,-0.6469,-0.6467,-0.6467,-0.6464,-0.6466,-0.6466,-0.6459,-0.6457,-0.645,-0.6454,-0.6468,-0.6446,-0.6445,-0.645,-0.648,-0.6486,-0.6489,-0.6463,-0.6463,-0.6463,-0.648,0,-0.6502,-0.6506,-0.6496,-0.6503,-0.6504,-0.6491,-0.6494,-0.649,-0.6485,-0.6485,-0.6479,-0.6479,-0.647,-0.6469,-0.6472,-0.6466,-0.6474,-0.6464,-0.6465,-0.6465,-0.6467,-0.6491,-0.6498,-0.6514,-0.6482,-0.6483,-0.6483,0,-0.6522,-0.6519,-0.6526,-0.6518,-0.6518,-0.652,-0.6518,-0.6518,-0.6513,-0.6509,-0.6507,-0.6499,-0.6502,-0.6492,-0.6495,-0.6489,-0.6489,-0.6486,-0.6486,-0.6486,-0.6475,-0.6492,-0.6519,-0.6521,-0.6486,-0.6486,-0.6486,0,-0.6543,-0.6541,-0.6544,-0.6543,-0.6534,-0.6536,-0.6532,-0.6527,-0.6526,-0.6524,-0.6524,-0.6522,-0.6521,-0.652,-0.6511,-0.6505,-0.6516,-0.6505,-0.6513,-0.6513,-0.6516,-0.6516,-0.6544,-0.6516,-0.6516,-0.6516,-0.6516,0,-0.6562,-0.6567,-0.6554,-0.6556,-0.6561,-0.6551,-0.6556,-0.6551,-0.6547,-0.6548,-0.6537,-0.6539,-0.6528,-0.6528,-0.6522,-0.6526,-0.6526,-0.6523,-0.6521,-0.6524,-0.6524,-0.6524,-0.6522,-0.6516,-0.6516,-0.6516,-0.6516,0,-0.6587,-0.6578,-0.6582,-0.6573,-0.6571,-0.6575,-0.6567,-0.657,-0.6563,-0.6566,-0.6565,-0.6556,-0.6556,-0.6548,-0.6546,-0.6542,-0.6549,-0.6545,-0.655,-0.6549,-0.6558,-0.6557,-0.6586,-0.6589,-0.6559,-0.6559,-0.656,0,-0.66,-0.6604,-0.6595,-0.6595,-0.6592,-0.6592,-0.6592,-0.6581,-0.6581,-0.6576,-0.6579,-0.6578,-0.6577,-0.6577,-0.6571,-0.6569,-0.6566,-0.6576,-0.6565,-0.6568,-0.6566,-0.6566,-0.6567,-0.6578,-0.6578,-0.6579,-0.6579,0,-0.6625,-0.6621,-0.662,-0.6617,-0.6617,-0.6614,-0.6611,-0.6612,-0.6601,-0.6601,-0.6601,-0.66,-0.6598,-0.6598,-0.6595,-0.6592,-0.6584,-0.6582,-0.6584,-0.6587,-0.659,-0.6589,-0.6557,-0.6582,-0.6581,-0.6581,-0.6581,-0.6581,-0.6645,-0.6648,-0.6642,-0.6641,-0.6638,-0.6635,-0.6637,-0.6631,-0.663,-0.6628,-0.6622,-0.6623,-0.6618,-0.6614,-0.6611,-0.6612,-0.6607,-0.661,-0.661,-0.6611,-0.6613,-0.659,-0.6612,-0.6612,-0.6611,-0.6611,-0.6611,0,-0.667,-0.6666,-0.6665,-0.6661,-0.6661,-0.6653,-0.6649,-0.6649,-0.665,-0.6646,-0.6645,-0.6645,-0.6644,-0.6638,-0.6636,-0.6638,-0.6635,-0.6638,-0.6638,-0.6638,-0.6617,-0.6616,-0.6641,-0.6641,-0.6641,-0.6641,-0.6641,-0.6641,-0.6683,-0.6687,-0.6682,-0.6684,-0.6679,-0.668,-0.6678,-0.6676,-0.6673,-0.6673,-0.6673,-0.6668,-0.6663,-0.6661,-0.666,-0.6658,-0.6659,-0.6664,-0.6661,-0.6642,-0.6639,-0.6636,-0.6635,-0.6664,-0.6664,-0.6681,-0.6681,-0.6681]},{"header":{"parameterUnit":"m.s-1","parameterCategory":1,"la1":30.2991,"la2":30.254,"lo1":-89.0895,"lo2":-89.0444,"dy":0.0017,"dx":0.0017,"nx":28,"ny":28,"refTime":"2025-09-12T09:00:00:Z","depth":0,"parameterNumber":3,"parameterNumberName":"V-component_of_WINDS"},"data":[0,0,0,0,0,0,0,0,0,0,0,0,0,0,0,0,0,0,0,0,0,0,0,0,0,0,0,0,0,0,0,0,0,0,0,0,0,0,0,0,0,0,0,0,0,0,0,0,0,0,0,0,0,0,0,0,0,0,2.9583,2.9582,0,2.956,2.9559,2.9559,2.9529,2.9528,2.9528,2.9527,2.9503,2.9503,2.9502,0,0,0,0,0,0,0,0,0,0,0,0,0,2.96,2.96,2.9583,2.9582,2.9582,2.956,2.9559,2.9559,2.9529,2.9528,2.9528,2.9527,2.9503,2.9503,2.9502,0,0,0,0,0,0,0,0,0,0,0,0,0,2.9586,2.9599,2.9583,2.9564,2.9562,2.956,2.9559,2.9559,2.9529,2.9528,2.9527,2.9527,2.9503,2.9503,2.9502,2.9516,0,0,2.9501,2.9501,0,0,0,0,0,0,0,0,2.9587,2.9585,2.9567,2.9566,2.9563,2.9546,2.9556,2.9544,2.9529,2.9542,2.9527,2.9526,2.9518,2.9516,2.9513,2.9514,2.9513,2.9501,2.9501,2.9501,2.9501,0,0,0,0,0,0,0,2.9588,2.9586,2.9573,2.9567,2.9565,2.9557,2.9554,2.9554,2.9534,2.954,2.9538,2.9536,2.9517,2.9514,2.9513,2.9513,2.9501,2.9501,2.9501,2.9501,2.9523,2.9524,0,0,0,0,0,0,2.9592,2.9587,2.9574,2.9573,2.9574,2.9557,2.9554,2.9553,2.9534,2.9531,2.9537,2.9535,2.9515,2.9513,2.9512,2.9525,2.9501,2.9501,2.9501,2.9522,2.9523,2.9524,0,0,0,0,0,0,2.9592,2.9591,2.9575,2.9579,2.9577,2.9558,2.9556,2.9552,2.955,2.9531,2.9527,2.9537,2.9514,2.9512,2.9515,2.9524,2.9501,2.9501,2.9521,2.9523,2.9524,2.9554,0,0,0,0,0,0,2.9593,2.9591,2.9596,2.958,2.9577,2.9579,2.9557,2.9553,2.9549,2.9547,2.9531,2.9528,2.9513,2.9515,2.9515,2.9523,2.95,2.952,2.9522,2.9523,2.9552,2.9556,2.9559,0,0,0,0,0,2.9593,2.9605,2.9597,2.9595,2.9583,2.958,2.9578,2.9561,2.955,2.9555,2.9543,2.9528,2.9524,2.9516,2.9515,2.9524,2.952,2.9521,2.9523,2.955,2.9555,2.9559,0,0,0,0,0,0,2.9623,2.9603,2.9593,2.96,2.9592,2.9574,2.958,2.9567,2.9561,2.9559,2.9538,2.9535,2.954,2.9532,2.9524,2.9535,2.9519,2.9521,2.954,2.9545,2.9548,2.955,2.95,0,0,0,0,0,2.9631,2.963,2.9612,2.962,2.9617,2.9599,2.9597,2.9585,2.9576,2.9572,2.956,2.9551,2.9548,2.9546,2.9542,2.9551,2.9546,2.9556,2.956,2.9563,2.9564,2.9568,2.9572,2.953,2.953,2.953,0,0,2.9646,2.9635,2.9635,2.9626,2.9618,2.9618,2.9596,2.9597,2.9596,2.9572,2.9574,2.9565,2.9553,2.9559,2.9561,2.9553,2.9575,2.9565,2.9568,2.9567,2.957,2.9574,2.9577,2.9531,2.9531,2.953,0,0,2.9673,2.9665,2.967,2.9663,2.9652,2.964,2.9641,2.9626,2.9619,2.9621,2.9602,2.9601,2.9596,2.9588,2.9584,2.9608,2.9594,2.9608,2.9627,2.963,2.9633,2.9636,2.9644,2.9648,2.9609,2.9609,2.9609,0,2.9693,2.9692,2.9675,2.9676,2.9672,2.9651,2.9656,2.965,2.9638,2.9635,2.9626,2.9618,2.9609,2.9613,2.9619,2.9616,2.9617,2.9609,2.9634,2.9637,2.9639,2.9647,2.965,2.9611,2.9611,2.9611,2.961,0,2.9717,2.9717,2.9722,2.9711,2.9708,2.9712,2.9694,2.9693,2.9682,2.9671,2.9672,2.9661,2.9654,2.9654,2.9642,2.9655,2.965,2.9638,2.9622,2.9645,2.9652,2.9655,2.9613,2.9613,2.9612,2.9612,0,0,2.9762,2.9741,2.9744,2.9738,2.9724,2.9723,2.9726,2.9719,2.9718,2.971,2.9711,2.9707,2.9696,2.9691,2.9678,2.9682,2.9701,2.9669,2.9668,2.9675,2.9714,2.9723,2.9726,2.9692,2.9693,2.9693,2.9715,0,2.9786,2.9789,2.9773,2.978,2.9779,2.9759,2.9761,2.9752,2.9742,2.974,2.9729,2.9726,2.9711,2.9708,2.971,2.9698,2.9709,2.9697,2.9692,2.9692,2.9695,2.973,2.9739,2.976,2.9717,2.9718,2.9718,0,2.9814,2.9808,2.9815,2.98,2.9799,2.9802,2.9794,2.9792,2.9782,2.9774,2.9769,2.9755,2.9755,2.974,2.9741,2.9733,2.973,2.9724,2.9724,2.9723,2.9706,2.9728,2.9767,2.977,2.9722,2.9722,2.9722,0,2.9845,2.9839,2.9842,2.9838,2.9822,2.9823,2.9816,2.9805,2.9802,2.9796,2.9793,2.9787,2.9783,2.9778,2.9762,2.9753,2.9764,2.9748,2.9758,2.9758,2.976,2.976,2.9798,2.976,2.976,2.976,2.976,0,2.9873,2.9878,2.9856,2.9858,2.9862,2.9845,2.985,2.9841,2.9831,2.9831,2.9813,2.9813,2.9792,2.979,2.9777,2.9779,2.9778,2.9771,2.9768,2.9772,2.9773,2.977,2.9767,2.9761,2.976,2.976,2.976,0,2.9908,2.9894,2.9896,2.988,2.9876,2.988,2.9866,2.9867,2.9856,2.9856,2.9855,2.9837,2.9833,2.9817,2.9809,2.9801,2.9806,2.98,2.981,2.9808,2.9818,2.9817,2.9854,2.9857,2.9818,2.9819,2.9819,0,2.9927,2.993,2.9914,2.9913,2.9907,2.9905,2.9902,2.9884,2.9882,2.987,2.9872,2.9867,2.9862,2.9856,2.9842,2.9836,2.9829,2.9843,2.9828,2.9832,2.9828,2.9828,2.9828,2.9845,2.9846,2.9846,2.9847,0,2.9961,2.9953,2.9949,2.9943,2.994,2.9934,2.9927,2.9927,2.9908,2.9905,2.9901,2.9897,2.9889,2.9884,2.9875,2.9868,2.9854,2.9852,2.9853,2.9858,2.9863,2.9859,2.9818,2.9851,2.985,2.985,2.985,2.985,2.9987,2.9989,2.9978,2.9975,2.9968,2.9962,2.9962,2.9951,2.9947,2.994,2.993,2.9927,2.9916,2.9903,2.9896,2.9893,2.9886,2.9888,2.9889,2.989,2.9892,2.9864,2.9892,2.9892,2.9892,2.9892,2.9891,0,3.002,3.0012,3.0009,3.0,2.9997,2.9985,2.9976,2.9975,2.9972,2.9964,2.9959,2.9954,2.9949,2.9935,2.9928,2.9928,2.9922,2.9927,2.9926,2.9925,2.9899,2.9898,2.9932,2.9932,2.9932,2.9932,2.9932,2.9932,3.0036,3.0038,3.003,3.0028,3.002,3.0018,3.0014,3.0008,3.0001,2.9996,2.9992,2.9983,2.9972,2.9965,2.9959,2.9955,2.9953,2.996,2.9954,2.993,2.9926,2.9923,2.9921,2.996,2.996,2.9979,2.998,2.998]}]]